NORTHERN NASSAU  -  Rip Current Statement Rip Current Statement     Air Quality Alert Air Quality Alert        NORTHERN QUEENS  -  Rip Current Statement Rip Current Statement     Air Quality Alert Air Quality Alert        SOUTHERN NASSAU  -  Rip Current Statement Rip Current Statement     Air Quality Alert Air Quality Alert        SOUTHERN QUEENS  -  Rip Current Statement Rip Current Statement     Air Quality Alert Air Quality Alert        NORTHEAST SUFFOLK  -  Air Quality Alert Air Quality Alert        NORTHWEST SUFFOLK  -  Air Quality Alert Air Quality Alert        SOUTHEAST SUFFOLK  -  Air Quality Alert Air Quality Alert        SOUTHWEST SUFFOLK  -  Air Quality Alert Air Quality Alert      

Active alerts

Northern Queens
  Details for Northern Queens Rip Current Statement  +1 additional alert
Southern Queens
  Details for Southern Queens Rip Current Statement  +1 additional alert
Northern Nassau
  Details for Northern Nassau Rip Current Statement  +1 additional alert
Southern Nassau
  Details for Southern Nassau Rip Current Statement  +1 additional alert
Northwest Suffolk
  Details for Northwest Suffolk Air Quality Alert
Southwest Suffolk
  Details for Southwest Suffolk Air Quality Alert
Northeast Suffolk
  Details for Northeast Suffolk Air Quality Alert
Southeast Suffolk
  Details for Southeast Suffolk Air Quality Alert


WXM80 ListenWXM80 Stop

You find our weather info also at:

UK Metoffice

WeatherCloud

Weather Underground

Northeastern Weather Network

AWEKAS

Citizen Weather Observer Program (CWOP)

HAMweather, WeatherForYou, PWS Weather


Weather Underground History page Text

Daily Summary for January 19, 2018 Units:  Metric    English   Both
« Previous Day
Next Day »
Daily Weekly Monthly Yearly Custom
  High: Low: Average:
Temperature: 2.3 °C -4.6 °C -1.3 °C
Dew Point: -4.6 °C -8.4 °C -6.5 °C
Humidity: 77 % 54 % 68 %
Wind Speed: 13.4 km/h 0 km/h 4 km/h
Wind Gust: 22.2 km/h - -
Wind:- - WSW
Pressure: 1010 hPa 1005.3 hPa -
Precipitation: 0 mm    
Historical Graphs
 
 
Tabular Data for January 19, 2018
Time Temperature Dew Point Pressure Wind Wind Speed Wind Gust Humidity Rainfall Rate (Hourly)
00:01 -4 °C -7.8 °C 1009 hPa West 4.7 km/h 9.3 km/h 75 % 0 mm
00:06 -3.9 °C -7.6 °C 1009 hPa WNW 4.3 km/h 13 km/h 76 % 0 mm
00:11 -3.9 °C -7.5 °C 1009 hPa West 3.4 km/h 13 km/h 76 % 0 mm
00:16 -3.9 °C -7.5 °C 1009 hPa NW 5.1 km/h 18.5 km/h 76 % 0 mm
00:21 -3.8 °C -7.6 °C 1009 hPa West 5.6 km/h 11.1 km/h 75 % 0 mm
00:26 -3.8 °C -7.6 °C 1009 hPa WNW 2.6 km/h 5.6 km/h 75 % 0 mm
00:31 -3.7 °C -7.5 °C 1009 hPa WSW 4.2 km/h 11.1 km/h 75 % 0 mm
00:36 -3.7 °C -7.5 °C 1008.7 hPa WNW 5 km/h 9.3 km/h 75 % 0 mm
00:41 -3.7 °C -7.5 °C 1008.7 hPa West 4 km/h 6.4 km/h 75 % 0 mm
00:46 -3.7 °C -7.7 °C 1008.7 hPa NW 6.1 km/h 11.3 km/h 74 % 0 mm
00:51 -3.7 °C -7.7 °C 1008.4 hPa WNW 5.1 km/h 11.1 km/h 74 % 0 mm
00:56 -3.7 °C -7.7 °C 1008.4 hPa West 6.4 km/h 11.1 km/h 74 % 0 mm
01:01 -3.7 °C -7.5 °C 1008.4 hPa WSW 5.3 km/h 9.3 km/h 75 % 0 mm
01:06 -3.7 °C -7.7 °C 1008.4 hPa WNW 5.3 km/h 9.3 km/h 74 % 0 mm
01:11 -3.7 °C -7.7 °C 1008.4 hPa West 5.3 km/h 8 km/h 74 % 0 mm
01:16 -3.7 °C -7.7 °C 1008.4 hPa WSW 5 km/h 11.1 km/h 74 % 0 mm
01:21 -3.7 °C -7.7 °C 1008.4 hPa WSW 5.5 km/h 11.1 km/h 74 % 0 mm
01:26 -3.8 °C -7.7 °C 1008.4 hPa WNW 1.4 km/h 5.6 km/h 74 % 0 mm
01:32 -3.8 °C -7.7 °C 1008.4 hPa West 5.1 km/h 9.3 km/h 74 % 0 mm
01:37 -3.8 °C -7.7 °C 1008.7 hPa WSW 8 km/h 14.8 km/h 74 % 0 mm
01:42 -3.8 °C -7.7 °C 1008.7 hPa WNW 6.9 km/h 14.8 km/h 74 % 0 mm
01:47 -3.8 °C -7.7 °C 1008.7 hPa WSW 4.3 km/h 11.1 km/h 74 % 0 mm
01:52 -3.7 °C -7.7 °C 1008.7 hPa WSW 6.6 km/h 13 km/h 74 % 0 mm
01:57 -3.7 °C -7.7 °C 1008.7 hPa WNW 6.9 km/h 11.1 km/h 74 % 0 mm
02:02 -3.7 °C -7.7 °C 1008.7 hPa West 8.7 km/h 17.7 km/h 74 % 0 mm
02:07 -3.7 °C -7.7 °C 1008.7 hPa WNW 5.3 km/h 13 km/h 74 % 0 mm
02:12 -3.7 °C -7.8 °C 1008.7 hPa WSW 2.7 km/h 5.6 km/h 73 % 0 mm
02:17 -3.7 °C -7.6 °C 1008.7 hPa WNW 7.6 km/h 13 km/h 74 % 0 mm
02:22 -3.7 °C -7.8 °C 1008.7 hPa West 8.4 km/h 11.1 km/h 73 % 0 mm
02:27 -3.7 °C -7.6 °C 1008.7 hPa WNW 4.2 km/h 11.1 km/h 74 % 0 mm
02:32 -3.7 °C -7.7 °C 1008.7 hPa West 4.7 km/h 13 km/h 74 % 0 mm
02:37 -3.7 °C -7.8 °C 1008.7 hPa WNW 6 km/h 12.9 km/h 73 % 0 mm
02:42 -3.7 °C -7.7 °C 1008.7 hPa WNW 6.6 km/h 14.5 km/h 74 % 0 mm
02:47 -3.7 °C -7.7 °C 1008.7 hPa West 6.9 km/h 9.3 km/h 74 % 0 mm
02:52 -3.7 °C -7.6 °C 1008.7 hPa WNW 8.2 km/h 16.1 km/h 74 % 0 mm
02:58 -3.7 °C -7.6 °C 1008.7 hPa NW 7.2 km/h 13 km/h 74 % 0 mm
03:03 -3.7 °C -7.6 °C 1008.4 hPa WNW 7.7 km/h 11.1 km/h 74 % 0 mm
03:08 -3.7 °C -7.6 °C 1008.4 hPa WNW 5.3 km/h 9.3 km/h 74 % 0 mm
03:13 -3.7 °C -7.6 °C 1008.7 hPa WNW 6.4 km/h 9.3 km/h 74 % 0 mm
03:18 -3.6 °C -7.6 °C 1008.4 hPa West 0.2 km/h 9.3 km/h 74 % 0 mm
03:23 -3.6 °C -7.6 °C 1008.7 hPa West 5.6 km/h 13 km/h 74 % 0 mm
03:28 -3.6 °C -7.4 °C 1008.7 hPa NW 6.4 km/h 11.3 km/h 75 % 0 mm
03:33 -3.6 °C -7.6 °C 1008.7 hPa West 7.6 km/h 14.8 km/h 74 % 0 mm
03:38 -3.6 °C -7.6 °C 1009 hPa WSW 5.6 km/h 11.1 km/h 74 % 0 mm
03:43 -3.6 °C -7.6 °C 1009 hPa WNW 6.6 km/h 13 km/h 74 % 0 mm
03:48 -3.7 °C -7.6 °C 1009 hPa West 4.2 km/h 7.4 km/h 74 % 0 mm
03:53 -3.7 °C -7.4 °C 1009 hPa West 4.7 km/h 9.3 km/h 75 % 0 mm
03:58 -3.7 °C -7.4 °C 1009 hPa WSW 9.2 km/h 18.5 km/h 75 % 0 mm
04:03 -3.7 °C -7.6 °C 1009 hPa WSW 8.5 km/h 11.1 km/h 74 % 0 mm
04:08 -3.6 °C -7.6 °C 1009 hPa NW 7.4 km/h 14.8 km/h 74 % 0 mm
04:13 -3.6 °C -7.6 °C 1009 hPa West 6.8 km/h 11.1 km/h 74 % 0 mm
04:18 -3.6 °C -7.6 °C 1009 hPa SW 5.3 km/h 14.8 km/h 74 % 0 mm
04:23 -3.6 °C -7.7 °C 1009 hPa WSW 12.1 km/h 14.8 km/h 73 % 0 mm
04:28 -3.6 °C -7.9 °C 1009.4 hPa West 6.6 km/h 9.3 km/h 72 % 0 mm
04:33 -3.5 °C -8 °C 1009.4 hPa WSW 4.2 km/h 9.3 km/h 71 % 0 mm
04:38 -3.5 °C -8 °C 1009.4 hPa West 3.7 km/h 9.7 km/h 71 % 0 mm
04:43 -3.5 °C -8 °C 1009 hPa SW 7.2 km/h 9.3 km/h 71 % 0 mm
04:48 -3.6 °C -8.1 °C 1009 hPa WSW 6.4 km/h 14.8 km/h 71 % 0 mm
04:54 -3.6 °C -7.9 °C 1009 hPa WSW 8.2 km/h 18.5 km/h 72 % 0 mm
04:59 -3.6 °C -7.9 °C 1009 hPa WSW 2.1 km/h 7.4 km/h 72 % 0 mm
05:04 -3.6 °C -7.9 °C 1009.4 hPa WSW 3.5 km/h 9.3 km/h 72 % 0 mm
05:09 -3.6 °C -7.8 °C 1009.4 hPa WSW 5 km/h 9.3 km/h 73 % 0 mm
05:14 -3.7 °C -7.8 °C 1009 hPa SW 6.8 km/h 11.3 km/h 73 % 0 mm
05:19 -3.7 °C -7.8 °C 1009.4 hPa SW 4.8 km/h 7.4 km/h 73 % 0 mm
05:24 -3.8 °C -7.9 °C 1009.4 hPa SW 2.7 km/h 5.6 km/h 73 % 0 mm
05:29 -3.8 °C -7.9 °C 1009.4 hPa SSW 4.3 km/h 5.6 km/h 73 % 0 mm
05:34 -3.9 °C -8.1 °C 1009.4 hPa SW 4.7 km/h 6.4 km/h 73 % 0 mm
05:39 -4 °C -8.1 °C 1009 hPa SW 0.3 km/h 1.9 km/h 73 % 0 mm
05:42 -4 °C -8.1 °C 1009.4 hPa SW 1.6 km/h 3.7 km/h 73 % 0 mm
05:47 -4.1 °C -8.2 °C 1009 hPa SW 1.6 km/h 5.6 km/h 73 % 0 mm
05:52 -4.2 °C -8.3 °C 1009.4 hPa SW 1.3 km/h 5.6 km/h 73 % 0 mm
05:57 -4.3 °C -8.4 °C 1009 hPa WSW 2.7 km/h 5.6 km/h 73 % 0 mm
06:02 -4.3 °C -8.3 °C 1009 hPa WSW 5.8 km/h 9.3 km/h 74 % 0 mm
06:07 -4.4 °C -8.3 °C 1009.4 hPa WSW 1.6 km/h 1.9 km/h 74 % 0 mm
06:12 -4.4 °C -8.4 °C 1009.4 hPa WSW 1.6 km/h 1.9 km/h 74 % 0 mm
06:17 -4.5 °C -8.4 °C 1009 hPa SW 4 km/h 5.6 km/h 74 % 0 mm
06:22 -4.5 °C -8.3 °C 1009 hPa WSW 4 km/h 8 km/h 75 % 0 mm
06:27 -4.5 °C -8.3 °C 1009.4 hPa WSW 0.6 km/h 5.6 km/h 75 % 0 mm
06:32 -4.5 °C -8.3 °C 1009.4 hPa WSW 4.2 km/h 5.6 km/h 75 % 0 mm
06:37 -4.5 °C -8.3 °C 1009.4 hPa Calm     75 % 0 mm
06:42 -4.5 °C -8.3 °C 1009.4 hPa SW 4.2 km/h 7.4 km/h 75 % 0 mm
06:47 -4.5 °C -8.3 °C 1009 hPa SW 1.6 km/h 5.6 km/h 75 % 0 mm
06:52 -4.5 °C -8.3 °C 1009.4 hPa WSW 3.2 km/h 9.3 km/h 75 % 0 mm
06:58 -4.5 °C -8.3 °C 1009.4 hPa WSW 2.3 km/h 3.7 km/h 75 % 0 mm
07:03 -4.5 °C -8.3 °C 1009.4 hPa WSW 4.3 km/h 5.6 km/h 75 % 0 mm
07:08 -4.5 °C -8.3 °C 1009 hPa SW 4 km/h 7.4 km/h 75 % 0 mm
07:13 -4.5 °C -8.3 °C 1009.4 hPa SSW 0.8 km/h 4.8 km/h 75 % 0 mm
07:18 -4.6 °C -8.3 °C 1009.4 hPa WSW 1.1 km/h 7.4 km/h 75 % 0 mm
07:23 -4.6 °C -8.2 °C 1009.4 hPa SW 1.9 km/h 4.8 km/h 76 % 0 mm
07:28 -4.6 °C -8.2 °C 1009.4 hPa WSW 1.8 km/h 5.6 km/h 76 % 0 mm
07:33 -4.6 °C -8.2 °C 1009.4 hPa SW 2.6 km/h 5.6 km/h 76 % 0 mm
07:38 -4.6 °C -8.2 °C 1009.4 hPa WSW 4.2 km/h 5.6 km/h 76 % 0 mm
07:43 -4.6 °C -8.2 °C 1009.4 hPa SSW 3.9 km/h 6.4 km/h 76 % 0 mm
07:48 -4.5 °C -8.1 °C 1009.4 hPa SW 1.6 km/h 5.6 km/h 76 % 0 mm
07:53 -4.5 °C -8.1 °C 1009.4 hPa SW 3.2 km/h 3.7 km/h 76 % 0 mm
07:58 -4.4 °C -8.1 °C 1009.4 hPa WSW 2.9 km/h 5.6 km/h 76 % 0 mm
08:03 -4.3 °C -7.8 °C 1009 hPa WSW 2.4 km/h 5.6 km/h 77 % 0 mm
08:08 -4.2 °C -7.8 °C 1009.4 hPa SW 3.1 km/h 5.6 km/h 76 % 0 mm
08:13 -4.1 °C -7.7 °C 1009.4 hPa SW 1 km/h 5.6 km/h 76 % 0 mm
08:18 -4 °C -7.6 °C 1009.7 hPa WSW 0.3 km/h 1.9 km/h 76 % 0 mm
08:23 -3.9 °C -7.5 °C 1009.4 hPa WSW 1.4 km/h 1.9 km/h 76 % 0 mm
08:29 -3.8 °C -7.4 °C 1009.7 hPa SW 2.6 km/h 5.6 km/h 76 % 0 mm
08:34 -3.7 °C -7.3 °C 1009.7 hPa SW 4 km/h 4.8 km/h 76 % 0 mm
08:39 -3.5 °C -7.3 °C 1009.7 hPa WSW 4 km/h 9.7 km/h 75 % 0 mm
08:44 -3.4 °C -7.2 °C 1009.7 hPa SW 4.2 km/h 9.3 km/h 75 % 0 mm
08:49 -3.2 °C -7.2 °C 1009.7 hPa WSW 4.2 km/h 5.6 km/h 74 % 0 mm
08:54 -3.1 °C -7.1 °C 1009.7 hPa Calm   5.6 km/h 74 % 0 mm
08:59 -3 °C -7 °C 1009.7 hPa WSW 2.1 km/h 5.6 km/h 74 % 0 mm
09:04 -2.8 °C -6.9 °C 1009.7 hPa Calm   1.9 km/h 73 % 0 mm
09:09 -2.6 °C -6.7 °C 1009.7 hPa SSW 1 km/h 3.7 km/h 73 % 0 mm
09:14 -2.3 °C -6.7 °C 1009.7 hPa SSW 2.1 km/h 5.6 km/h 72 % 0 mm
09:19 -2.1 °C -6.5 °C 1009.7 hPa SW 2.4 km/h 8 km/h 72 % 0 mm
09:24 -1.7 °C -6.3 °C 1009.7 hPa West 6.9 km/h 11.1 km/h 71 % 0 mm
09:29 -1.4 °C -6.2 °C 1009.7 hPa SW 8.9 km/h 14.8 km/h 70 % 0 mm
09:34 -1.1 °C -6 °C 1010 hPa WSW 6.8 km/h 14.5 km/h 69 % 0 mm
09:39 -0.8 °C -5.9 °C 1009.7 hPa WSW 9 km/h 13 km/h 68 % 0 mm
09:44 -0.4 °C -5.8 °C 1009.7 hPa SW 7.4 km/h 18.5 km/h 67 % 0 mm
09:49 -0.2 °C -6 °C 1010 hPa WSW 13 km/h 19.3 km/h 65 % 0 mm
09:54 -0.1 °C -6.1 °C 1009.7 hPa SW 10.1 km/h 19.3 km/h 64 % 0 mm
09:59 0.1 °C -6.2 °C 1010 hPa WSW 9.2 km/h 11.3 km/h 63 % 0 mm
10:04 0.2 °C -6 °C 1009.7 hPa West 7.7 km/h 11.3 km/h 63 % 0 mm
10:10 0.3 °C -6.2 °C 1010 hPa WSW 7.1 km/h 9.3 km/h 62 % 0 mm
10:15 0.4 °C -6.1 °C 1010 hPa WSW 7.9 km/h 16.7 km/h 62 % 0 mm
10:20 0.4 °C -6.2 °C 1010 hPa SW 5.3 km/h 14.8 km/h 61 % 0 mm
10:25 0.6 °C -6.1 °C 1009.7 hPa SW 5.5 km/h 18.5 km/h 61 % 0 mm
10:30 0.6 °C -6.3 °C 1009.7 hPa WSW 10.5 km/h 18.5 km/h 60 % 0 mm
10:35 0.7 °C -6.4 °C 1009.7 hPa WSW 10 km/h 14.8 km/h 59 % 0 mm
10:40 0.7 °C -6.6 °C 1009.7 hPa WSW 4 km/h 18.5 km/h 58 % 0 mm
10:45 0.8 °C -6.3 °C 1009.7 hPa West 6.6 km/h 18.5 km/h 59 % 0 mm
10:50 0.9 °C -6.4 °C 1009.7 hPa West 6.9 km/h 16.7 km/h 58 % 0 mm
10:55 0.9 °C -6.4 °C 1009.4 hPa SW 13.4 km/h 22.2 km/h 58 % 0 mm
11:00 0.9 °C -6.4 °C 1009.4 hPa WSW 10.8 km/h 18.5 km/h 58 % 0 mm
11:05 0.9 °C -6.4 °C 1009.4 hPa WNW 10.8 km/h 20.4 km/h 58 % 0 mm
11:10 0.9 °C -6.4 °C 1009.4 hPa WSW 9.2 km/h 13 km/h 58 % 0 mm
11:15 0.9 °C -6.4 °C 1009 hPa WSW 8.4 km/h 18.5 km/h 58 % 0 mm
11:20 1 °C -6.3 °C 1009 hPa West 11.7 km/h 20.4 km/h 58 % 0 mm
11:25 1.1 °C -6.3 °C 1008.7 hPa SSW 6 km/h 11.3 km/h 58 % 0 mm
11:30 1.1 °C -6.5 °C 1008.7 hPa SW 10.6 km/h 13 km/h 57 % 0 mm
11:35 1.1 °C -6.5 °C 1008.7 hPa WSW 11.3 km/h 14.8 km/h 57 % 0 mm
11:41 1.1 °C -6.5 °C 1008.7 hPa NW 4 km/h 16.1 km/h 57 % 0 mm
11:46 1.1 °C -6.2 °C 1008.7 hPa West 3.2 km/h 12.9 km/h 58 % 0 mm
11:51 1.1 °C -6.5 °C 1008.7 hPa West 9.7 km/h 19.3 km/h 57 % 0 mm
11:56 1.1 °C -6.5 °C 1008.7 hPa West 4.8 km/h 14.5 km/h 57 % 0 mm
12:01 1.1 °C -6.5 °C 1008.7 hPa WSW 6.9 km/h 18.5 km/h 57 % 0 mm
12:06 1.1 °C -6.5 °C 1008.4 hPa WNW 7.2 km/h 11.3 km/h 57 % 0 mm
12:11 1.1 °C -6.5 °C 1008 hPa West 1.4 km/h 5.6 km/h 57 % 0 mm
12:16 1.2 °C -6.4 °C 1008 hPa WSW 8.4 km/h 18.5 km/h 57 % 0 mm
12:21 1.2 °C -6.2 °C 1008 hPa WNW 3.2 km/h 5.6 km/h 58 % 0 mm
12:26 1.3 °C -6.1 °C 1008 hPa West 5.3 km/h 8 km/h 58 % 0 mm
12:31 1.4 °C -6.2 °C 1008 hPa West 5.6 km/h 13 km/h 57 % 0 mm
12:36 1.5 °C -6.1 °C 1007.7 hPa WNW 4.2 km/h 7.4 km/h 57 % 0 mm
12:41 1.6 °C -5.8 °C 1007.7 hPa WSW 8.4 km/h 14.8 km/h 58 % 0 mm
12:46 1.6 °C -6 °C 1007.7 hPa WSW 8 km/h 12.9 km/h 57 % 0 mm
12:51 1.7 °C -5.9 °C 1007.3 hPa WSW 10.1 km/h 14.8 km/h 57 % 0 mm
12:56 1.7 °C -5.9 °C 1007.7 hPa West 7.6 km/h 13 km/h 57 % 0 mm
13:01 1.8 °C -6.1 °C 1007.3 hPa SW 10.6 km/h 16.7 km/h 56 % 0 mm
13:06 1.8 °C -5.8 °C 1007.3 hPa WSW 7.7 km/h 12.9 km/h 57 % 0 mm
13:11 1.9 °C -5.9 °C 1007.3 hPa WSW 3.5 km/h 9.3 km/h 56 % 0 mm
13:16 2.1 °C -5.8 °C 1007.3 hPa WSW 8.5 km/h 13 km/h 56 % 0 mm
13:21 2.2 °C -5.7 °C 1007 hPa SSW 8.9 km/h 17.7 km/h 56 % 0 mm
13:27 2.3 °C -5.8 °C 1007.3 hPa West 4.3 km/h 9.7 km/h 55 % 0 mm
13:32 2.3 °C -5.8 °C 1007.3 hPa WNW 12.7 km/h 22.2 km/h 55 % 0 mm
13:37 2.3 °C -6.1 °C 1007.3 hPa WNW 10.3 km/h 16.7 km/h 54 % 0 mm
13:42 2.3 °C -5.8 °C 1007 hPa West 1.3 km/h 5.6 km/h 55 % 0 mm
13:47 2.3 °C -5.8 °C 1007 hPa West 9 km/h 18.5 km/h 55 % 0 mm
13:52 2.2 °C -5.9 °C 1007 hPa SSW 6.6 km/h 13 km/h 55 % 0 mm
13:57 2.1 °C -6 °C 1007 hPa West 10.6 km/h 18.5 km/h 55 % 0 mm
14:02 2.1 °C -5.8 °C 1007 hPa WSW 9.2 km/h 18.5 km/h 56 % 0 mm
14:07 2 °C -5.9 °C 1007 hPa WSW 9.7 km/h 13 km/h 56 % 0 mm
14:12 2 °C -5.9 °C 1007 hPa SW 7.9 km/h 13 km/h 56 % 0 mm
14:17 2.1 °C -5.8 °C 1007 hPa West 8.9 km/h 13 km/h 56 % 0 mm
14:22 2.1 °C -5.8 °C 1007 hPa WSW 12.6 km/h 18.5 km/h 56 % 0 mm
14:27 2.1 °C -5.8 °C 1007 hPa WSW 9.3 km/h 14.8 km/h 56 % 0 mm
14:32 2.1 °C -5.8 °C 1007 hPa SSW 8 km/h 13 km/h 56 % 0 mm
14:37 2 °C -5.9 °C 1007 hPa WSW 9.2 km/h 16.7 km/h 56 % 0 mm
14:42 2 °C -5.9 °C 1006.7 hPa SW 5.8 km/h 12.9 km/h 56 % 0 mm
14:47 2 °C -5.9 °C 1007 hPa WSW 3.2 km/h 9.7 km/h 56 % 0 mm
14:52 2 °C -5.9 °C 1007 hPa SW 6 km/h 18.5 km/h 56 % 0 mm
14:57 2 °C -5.6 °C 1007 hPa SSW 4.5 km/h 9.7 km/h 57 % 0 mm
15:02 2 °C -5.6 °C 1007 hPa WSW 7.6 km/h 16.7 km/h 57 % 0 mm
15:07 2.1 °C -5.8 °C 1007 hPa SW 4 km/h 7.4 km/h 56 % 0 mm
15:12 2.1 °C -5.8 °C 1007 hPa SW 7.1 km/h 13 km/h 56 % 0 mm
15:18 2.1 °C -5.8 °C 1007 hPa West 6.1 km/h 13 km/h 56 % 0 mm
15:23 2.1 °C -5.6 °C 1007 hPa WSW 5.3 km/h 13 km/h 57 % 0 mm
15:28 2.1 °C -5.6 °C 1007 hPa WSW 4.5 km/h 7.4 km/h 57 % 0 mm
15:33 2.1 °C -5.6 °C 1007.3 hPa SW 2.4 km/h 7.4 km/h 57 % 0 mm
15:38 2.1 °C -5.3 °C 1007.3 hPa WSW 4 km/h 7.4 km/h 58 % 0 mm
15:43 2.1 °C -5.6 °C 1007.3 hPa WSW 6.6 km/h 9.3 km/h 57 % 0 mm
15:48 2.1 °C -5.6 °C 1007.3 hPa WSW 3.7 km/h 9.7 km/h 57 % 0 mm
15:53 2.1 °C -5.6 °C 1007.3 hPa WSW 2.6 km/h 5.6 km/h 57 % 0 mm
15:58 2 °C -5.6 °C 1007 hPa WSW 6.6 km/h 9.3 km/h 57 % 0 mm
16:03 1.9 °C -5.7 °C 1007 hPa SW 4.2 km/h 7.4 km/h 57 % 0 mm
16:08 1.9 °C -5.4 °C 1007 hPa WSW 2.6 km/h 5.6 km/h 58 % 0 mm
16:13 1.9 °C -5.3 °C 1007 hPa Calm   3.7 km/h 59 % 0 mm
16:18 1.9 °C -5.3 °C 1007 hPa WSW 2.9 km/h 5.6 km/h 59 % 0 mm
16:23 1.8 °C -5.3 °C 1007 hPa West 2.1 km/h 9.3 km/h 59 % 0 mm
16:28 1.8 °C -5.6 °C 1007.3 hPa West 5.3 km/h 7.4 km/h 58 % 0 mm
16:33 1.8 °C -5.6 °C 1007.3 hPa West 3.2 km/h 5.6 km/h 58 % 0 mm
16:38 1.8 °C -5.6 °C 1007.3 hPa WSW 1.3 km/h 3.7 km/h 58 % 0 mm
16:43 1.7 °C -5.7 °C 1007.3 hPa SW 1.9 km/h 3.7 km/h 58 % 0 mm
16:48 1.7 °C -5.7 °C 1007.3 hPa Calm   1.6 km/h 58 % 0 mm
16:53 1.6 °C -5.6 °C 1007.3 hPa Calm   1.9 km/h 59 % 0 mm
16:58 1.6 °C -5.6 °C 1007.3 hPa Calm     59 % 0 mm
17:04 1.4 °C -5.7 °C 1007.3 hPa Calm     59 % 0 mm
17:09 1.3 °C -5.8 °C 1007.3 hPa Calm     59 % 0 mm
17:14 1.2 °C -5.7 °C 1007.3 hPa Calm     60 % 0 mm
17:19 1.1 °C -5.8 °C 1007.3 hPa Calm     60 % 0 mm
17:24 0.9 °C -5.7 °C 1007.3 hPa Calm     61 % 0 mm
17:29 0.8 °C -5.7 °C 1007.3 hPa WSW 0.2 km/h 1.9 km/h 62 % 0 mm
17:34 0.7 °C -5.8 °C 1007.3 hPa Calm     62 % 0 mm
17:39 0.6 °C -5.9 °C 1007.3 hPa Calm     62 % 0 mm
17:44 0.4 °C -5.8 °C 1007.3 hPa Calm     63 % 0 mm
17:49 0.3 °C -5.7 °C 1007 hPa Calm     64 % 0 mm
17:54 0.1 °C -5.7 °C 1007.3 hPa Calm     65 % 0 mm
17:59 0 °C -5.6 °C 1007 hPa Calm     66 % 0 mm
18:04 -0.1 °C -5.7 °C 1007 hPa Calm     66 % 0 mm
18:09 -0.2 °C -5.6 °C 1007 hPa Calm     67 % 0 mm
18:14 -0.3 °C -5.7 °C 1007.3 hPa Calm     67 % 0 mm
18:19 -0.3 °C -5.5 °C 1007.3 hPa Calm     68 % 0 mm
18:24 -0.4 °C -5.6 °C 1007.3 hPa Calm     68 % 0 mm
18:29 -0.5 °C -5.9 °C 1007.3 hPa Calm     67 % 0 mm
18:35 -0.6 °C -5.7 °C 1007 hPa Calm   1.9 km/h 68 % 0 mm
18:40 -0.6 °C -5.7 °C 1007 hPa Calm   1.9 km/h 68 % 0 mm
18:45 -0.6 °C -5.8 °C 1007 hPa Calm   1.9 km/h 68 % 0 mm
18:50 -0.7 °C -5.8 °C 1007 hPa Calm   1.9 km/h 68 % 0 mm
18:55 -0.7 °C -5.8 °C 1007 hPa Calm     68 % 0 mm
19:00 -0.7 °C -5.7 °C 1007.3 hPa Calm     69 % 0 mm
19:05 -0.7 °C -5.7 °C 1007.3 hPa Calm     69 % 0 mm
19:10 -0.8 °C -5.8 °C 1007.3 hPa Calm   1.9 km/h 69 % 0 mm
19:15 -0.8 °C -5.8 °C 1007.3 hPa Calm     69 % 0 mm
19:20 -0.9 °C -5.9 °C 1007.3 hPa Calm     69 % 0 mm
19:25 -0.9 °C -5.7 °C 1007.3 hPa Calm     70 % 0 mm
19:30 -1 °C -5.8 °C 1007.3 hPa Calm     70 % 0 mm
19:35 -1.1 °C -5.8 °C 1007.3 hPa Calm     70 % 0 mm
19:40 -1.1 °C -5.9 °C 1007 hPa Calm     70 % 0 mm
19:45 -1.2 °C -5.8 °C 1007.3 hPa WSW 0.2 km/h 3.7 km/h 71 % 0 mm
19:50 -1.2 °C -5.8 °C 1007.3 hPa Calm     71 % 0 mm
19:55 -1.3 °C -5.9 °C 1007.3 hPa Calm     71 % 0 mm
20:00 -1.3 °C -5.9 °C 1007.3 hPa Calm     71 % 0 mm
20:06 -1.4 °C -5.8 °C 1007.3 hPa Calm   1.6 km/h 72 % 0 mm
20:11 -1.4 °C -5.8 °C 1007.3 hPa Calm   1.6 km/h 72 % 0 mm
20:16 -1.6 °C -5.7 °C 1007.3 hPa Calm   3.2 km/h 73 % 0 mm
20:21 -1.6 °C -5.8 °C 1007.3 hPa SW 1.3 km/h 5.6 km/h 73 % 0 mm
20:26 -1.7 °C -5.7 °C 1007.3 hPa Calm   6.4 km/h 74 % 0 mm
20:31 -1.7 °C -5.7 °C 1007 hPa SW 1.6 km/h 6.4 km/h 74 % 0 mm
20:36 -1.7 °C -5.6 °C 1007.3 hPa SW 1.9 km/h 3.7 km/h 75 % 0 mm
20:41 -1.7 °C -5.6 °C 1007 hPa SW 3.2 km/h 8 km/h 75 % 0 mm
20:46 -1.7 °C -5.6 °C 1007 hPa SW 1.6 km/h 4.8 km/h 75 % 0 mm
20:51 -1.6 °C -5.5 °C 1007 hPa SW 1.6 km/h 4.8 km/h 75 % 0 mm
20:56 -1.6 °C -5.4 °C 1007.3 hPa SW 3.2 km/h 6.4 km/h 75 % 0 mm
21:01 -1.4 °C -5.5 °C 1007 hPa WSW 4 km/h 6.4 km/h 74 % 0 mm
21:06 -1.3 °C -5.4 °C 1007.3 hPa WSW 1.3 km/h 5.6 km/h 74 % 0 mm
21:11 -1.2 °C -5.3 °C 1007.3 hPa SW 1.8 km/h 5.6 km/h 74 % 0 mm
21:16 -1.1 °C -5.2 °C 1007 hPa Calm     74 % 0 mm
21:21 -1 °C -5.2 °C 1007.3 hPa SW 0.2 km/h 3.7 km/h 73 % 0 mm
21:26 -0.9 °C -5.2 °C 1007 hPa Calm     73 % 0 mm
21:31 -0.9 °C -5.1 °C 1007 hPa Calm     73 % 0 mm
21:36 -0.8 °C -5.1 °C 1007 hPa SW 0.5 km/h 3.7 km/h 73 % 0 mm
21:41 -0.8 °C -5.1 °C 1007 hPa SW 1.3 km/h 3.7 km/h 73 % 0 mm
21:46 -0.8 °C -5.1 °C 1007 hPa SW 1.9 km/h 5.6 km/h 73 % 0 mm
21:51 -0.8 °C -5.1 °C 1006.7 hPa SW 2.4 km/h 5.6 km/h 73 % 0 mm
21:56 -0.8 °C -5.1 °C 1006.7 hPa SW 1.4 km/h 3.7 km/h 73 % 0 mm
22:01 -0.9 °C -5.3 °C 1006.7 hPa Calm   3.7 km/h 72 % 0 mm
22:06 -0.9 °C -5.1 °C 1006.7 hPa Calm     73 % 0 mm
22:11 -0.9 °C -5.1 °C 1006.7 hPa Calm     73 % 0 mm
22:17 -0.9 °C -5.2 °C 1006.7 hPa Calm   3.7 km/h 73 % 0 mm
22:22 -0.9 °C -5.2 °C 1006.3 hPa SW 0.3 km/h 1.9 km/h 73 % 0 mm
22:27 -0.9 °C -5.2 °C 1006.3 hPa SW 0.5 km/h 3.7 km/h 73 % 0 mm
22:32 -0.9 °C -5.2 °C 1006.3 hPa SW 1 km/h 3.7 km/h 73 % 0 mm
22:37 -0.9 °C -5.2 °C 1006 hPa SW 1.8 km/h 5.6 km/h 73 % 0 mm
22:42 -0.9 °C -5.2 °C 1006 hPa SW 1.8 km/h 5.6 km/h 73 % 0 mm
22:47 -0.9 °C -5 °C 1006.3 hPa SW 3.5 km/h 5.6 km/h 74 % 0 mm
22:52 -0.9 °C -5 °C 1006 hPa SSW 4.5 km/h 5.6 km/h 74 % 0 mm
22:57 -0.9 °C -5 °C 1006 hPa SSW 2.1 km/h 6.4 km/h 74 % 0 mm
23:02 -0.9 °C -4.9 °C 1006 hPa SSW 2.9 km/h 5.6 km/h 74 % 0 mm
23:07 -0.8 °C -4.9 °C 1006 hPa SSW 2.7 km/h 5.6 km/h 74 % 0 mm
23:12 -0.8 °C -4.8 °C 1006 hPa SSW 3.9 km/h 6.4 km/h 74 % 0 mm
23:17 -0.7 °C -4.8 °C 1006 hPa SSW 3.4 km/h 5.6 km/h 74 % 0 mm
23:22 -0.7 °C -4.7 °C 1005.6 hPa SSW 2.9 km/h 5.6 km/h 74 % 0 mm
23:27 -0.6 °C -4.6 °C 1005.6 hPa SSW 3.9 km/h 5.6 km/h 74 % 0 mm
23:32 -0.5 °C -4.6 °C 1005.6 hPa SSW 2.3 km/h 5.6 km/h 74 % 0 mm
23:37 -0.4 °C -4.7 °C 1005.6 hPa SSW 1.9 km/h 5.6 km/h 73 % 0 mm
23:42 -0.4 °C -4.7 °C 1005.6 hPa SSW 5.6 km/h 9.3 km/h 73 % 0 mm
23:47 -0.3 °C -4.6 °C 1005.3 hPa SSW 2.3 km/h 5.6 km/h 73 % 0 mm
23:52 -0.3 °C -4.6 °C 1005.3 hPa SSW 2.7 km/h 3.7 km/h 73 % 0 mm
23:58 -0.3 °C -4.6 °C 1005.3 hPa SW 1.6 km/h 5.6 km/h 73 % 0 mm
Crab Meadow Weather
Compliments of Weather Underground - 3 mb

Script developed by  Jim McMurry - jmcmurry@mwt.net Adapted for the template by  Wim van der Kuil - Leuven-Template.eu

Astronomy: Water covers 71% of Earth.